Regional Weather Roundup
Issued by NWS

Home | Current Version | Previous Version | Text Only | Print | Product List | Glossary Off
Versions: 1 2 3 4 5 6 7 8 9 10 11 12 13 14 15 16 17 18 19 20 21 22 23 24 25 26 27 28 29 30 31 32 33 34 35 36 37 38 39 40 41 42 43 44 45 46 47 48 49 50

000
ASUS45 KCYS 012310
RWRWY

WYOMING REGIONAL WEATHER ROUNDUP
NATIONAL WEATHER SERVICE CHEYENNE WY
500 PM MDT WED JUL 01 2015

NOTE:  "FAIR" INDICATES FEW OR NO CLOUDS BELOW 12,000 FEET
WITH NO SIGNIFICANT WEATHER AND/OR OBSTRUCTIONS TO VISIBILITY.

WYZ001-020000-
YELLOWSTONE NATIONAL PARK

CITY           SKY/WX    TMP DP  RH WIND       PRES   REMARKS
LK YELLOWSTONE   N/A     80  37  21 NW8       30.30F
W YELLOWSTONE  NOT AVBL

$$
WYZ002>013-054>058-071-098>099-020000-
NORTHERN WYOMING

CITY           SKY/WX    TMP DP  RH WIND       PRES   REMARKS
JACKSON        FAIR      84  45  24 NW12      30.18F
CODY           FAIR      84  50  30 N14G21    30.06S
GREYBULL       FAIR      94  44  17 NW7       29.93F HX  90
WORLAND        FAIR      94  47  20 VRB3      29.95F HX  90
SHERIDAN       FAIR      89  51  27 CALM      30.01F
BUFFALO        FAIR      85  53  33 N9        30.08F
GILLETTE       FAIR      84  54  35 NE8       30.03F
HULETT         FAIR      81  52  36 N9        30.06F
NEWCASTLE      FAIR      84  46  26 N9        30.04S

$$
WYZ014>020-022>026-101>103-020000-
CENTRAL WYOMING

CITY           SKY/WX    TMP DP  RH WIND       PRES   REMARKS
BIG PINEY      FAIR      87  39  18 NW17      30.21F
PINEDALE       FAIR      84  39  20 W18       30.22S
DUBOIS         FAIR      82  32  16 N16G24    30.20S
LANDER         LGT RAIN  78  49  35 SW8G21    30.07R
RIVERTON       FAIR      87  47  24 N6        30.07R
CASPER         FAIR      89  46  22 N5        30.05F
DOUGLAS        FAIR      88  50  27 VRB7      30.05F

$$
WYZ021-027>030-104>119-020000-
SOUTHERN WYOMING

CITY           SKY/WX    TMP DP  RH WIND       PRES   REMARKS
EVANSTON       FAIR      86  36  16 NW15G24   30.25F
KEMMERER       FAIR      84  37  18 NW23G29   30.25F
FORT BRIDGER   CLEAR     90  36  14 N15G24    30.25S
ROCK SPRINGS   FAIR      88  39  17 W18G24    30.16F
DIXON          MOCLDY    86  44  22 W6        30.19F
RAWLINS        TSTM      61  51  70 N22G43    30.26R VSB 1/2
SARATOGA       MOCLDY    66  50  55 S17       30.23F
LARAMIE        FAIR      72  50  45 S12       30.24F
CHEYENNE       FAIR      73  55  53 SW17G24   30.18S
TORRINGTON     FAIR      92  50  23 S7        29.99S
PINE BLUFFS    FAIR      86  46  25 S3        30.09F

$$


USA.gov is the U.S. government's official web portal to all federal, state and local government web resources and services.